This is the latest recevied weather packets stored in our database for station/object SP6PWT-13. If no packets are shown the sender has not sent any weather packets the latest 10 day(s).
| Time | Temp. | Humidity | Pressure | Rain* | Wind** | Luminosity | Snow |
|---|---|---|---|---|---|---|---|
| 1777644130 | 21.11° C | 34% | 1009.4 hPa | 0 mm | - | 415 W/m² | - |
| 1777643830 | 21.67° C | 34% | 1009.4 hPa | 0 mm | - | 426 W/m² | - |
| 1777643529 | 21.67° C | 33% | 1009.2 hPa | 0 mm | - | 433 W/m² | - |
| 1777643229 | 21.11° C | 34% | 1009.3 hPa | 0 mm | - | 441 W/m² | - |
| 1777642928 | 21.11° C | 34% | 1009.5 hPa | 0 mm | - | 451 W/m² | - |
| 1777642628 | 21.11° C | 34% | 1009.3 hPa | 0 mm | - | 459 W/m² | - |
| 1777642328 | 21.67° C | 33% | 1009.4 hPa | 0 mm | - | 470 W/m² | - |
| 1777642027 | 21.11° C | 34% | 1009.6 hPa | 0 mm | - | 479 W/m² | - |
| 1777641727 | 21.11° C | 34% | 1009.6 hPa | 0 mm | - | 490 W/m² | - |
| 1777641426 | 21.11° C | 34% | 1009.7 hPa | 0 mm | - | 499 W/m² | - |
| 1777641126 | 20.56° C | 34% | 1009.7 hPa | 0 mm | - | 508 W/m² | - |
| 1777640826 | 20.56° C | 34% | 1009.5 hPa | 0 mm | - | 514 W/m² | - |
| 1777640525 | 20.56° C | 34% | 1009.7 hPa | 0 mm | - | 523 W/m² | - |
| 1777640225 | 21.11° C | 33% | 1009.7 hPa | 0 mm | - | 532 W/m² | - |
| 1777639924 | 21.11° C | 34% | 1009.8 hPa | 0 mm | - | 541 W/m² | - |
| 1777639623 | 20.56° C | 35% | 1009.8 hPa | 0 mm | - | 551 W/m² | - |
| 1777639323 | 20.56° C | 34% | 1009.9 hPa | 0 mm | - | 559 W/m² | - |
| 1777639022 | 20.56° C | 35% | 1009.9 hPa | 0 mm | - | 564 W/m² | - |
| 1777638722 | 20.56° C | 35% | 1009.9 hPa | 0 mm | - | 575 W/m² | - |
| 1777638421 | 20° C | 34% | 1010 hPa | 0 mm | - | 581 W/m² | - |
| 1777638121 | 20.56° C | 34% | 1010.2 hPa | 0 mm | - | 590 W/m² | - |
| 1777637820 | 20° C | 35% | 1010.3 hPa | 0 mm | - | 597 W/m² | - |
| 1777637520 | 20° C | 35% | 1010.2 hPa | 0 mm | - | 605 W/m² | - |
| 1777637219 | 20° C | 35% | 1010.3 hPa | 0 mm | - | 612 W/m² | - |
| 1777636919 | 20° C | 35% | 1010.4 hPa | 0 mm | - | 618 W/m² | - |
* Rain latest hour (hover to see other rain measurements)
** Current wind speed in m/s (hover to see current wind gust speed)